Temp
50 51 52 53 53 52 52 52 53 52 52 52 52 52 52 52 52 52 52 52 52 52 52 52 52 52 51 50 50 51 51 51 51 51 51 50 50 49 48 48 48 49 49 50 49 48 48 47 47 48 49 50 50 50 50 50 51 52 52 53 53 54 54 54 55 55 55 55 56
50 51 53 53 53 53 52 52 52 51 51 51 51 51 52 52 52 51 51 52 52 52 52 52 52 51 51 50 50 51 51 51 50 50 50 50 49 48 48 48 49 49 49 48 48 48 48 48 48 48 49 49 49 49 49 50 50 51 51 52 53 53 53 54 54 55 55 55 56
50 50 51 52 52 52 51 51 50 50 50 50 50 51 51 51 51 51 51 51 51 51 51 52 51 51 50 50 50 50 50 50 49 49 50 50 49 49 49 49 48 48 48 48 48 48 49 49 48 49 49 49 50 50 50 50 50 50 50 51 52 52 52 53 54 55 55 55 55
49 49 50 50 50 51 51 50 49 49 50 50 50 50 51 51 51 51 51 51 50 50 51 51 50 50 50 50 50 50 49 49 49 49 49 50 50 49 49 49 48 48 48 48 48 48 48 48 48 49 49 50 51 51 51 51 50 50 50 51 51 51 52 52 53 54 54 54 54
49 49 50 49 49 49 50 49 49 49 50 50 50 50 50 50 50 50 50 51 50 50 50 49 50 50 50 49 49 48 49 49 49 49 49 49 49 49 49 48 48 48 48 48 48 48 48 47 48 48 49 49 50 51 51 51 51 50 50 50 50 51 51 52 52 53 53 53 53
48 49 49 49 49 49 49 48 48 48 49 49 49 49 49 50 49 49 49 49 49 49 49 49 49 50 49 48 48 48 48 48 48 48 47 48 48 48 48 48 48 48 48 48 47 47 47 47 48 48 49 49 50 50 50 49 50 50 50 50 50 50 51 51 52 52 52 52 53
48 48 48 48 48 48 48 47 47 48 48 49 48 48 48 48 48 47 47 48 48 48 48 49 48 48 48 48 48 47 47 47 47 47 47 47 47 47 48 48 48 47 47 47 47 47 47 46 48 49 50 50 50 50 50 49 49 50 50 51 50 50 50 51 51 51 52 52 53
48 48 47 47 47 46 46 46 46 47 47 47 47 46 46 46 46 46 46 47 47 47 47 47 47 46 46 47 46 46 46 46 46 47 46 46 46 47 47 47 47 47 47 47 47 47 47 47 48 49 50 51 51 51 50 49 49 50 51 52 51 51 50 51 51 51 52 52 52
47 46 46 46 46 45 44 44 44 45 45 45 45 45 45 45 45 45 46 46 46 46 46 46 46 45 45 45 45 45 45 46 46 46 46 46 46 46 46 47 47 47 47 47 47 47 47 47 48 49 50 50 51 51 50 49 49 50 51 52 51 51 50 50 50 51 51 52 52
46 45 45 45 45 44 44 44 44 44 44 44 44 44 45 45 45 45 45 45 45 45 45 45 45 44 44 44 45 45 45 45 45 45 45 45 45 45 45 46 46 46 47 47 47 47 47 47 48 48 49 49 50 50 50 48 49 49 50 51 52 51 51 50 50 50 50 51 51
45 45 45 45 44 44 44 44 44 44 44 43 43 43 44 44 44 44 44 45 44 44 44 44 44 44 44 44 44 44 44 45 44 44 44 44 45 45 45 45 45 46 46 46 47 47 47 47 47 48 48 48 48 48 48 47 48 48 49 50 51 51 51 51 50 50 50 51 50
44 44 45 44 44 44 44 44 44 44 43 43 43 43 43 43 43 43 44 43 43 43 43 44 43 43 43 44 44 44 44 44 44 44 44 44 44 44 44 45 45 45 45 46 46 46 47 47 47 47 48 48 48 48 47 47 47 47 48 49 49 49 50 51 51 51 50 50 50
44 44 44 43 43 43 43 43 43 43 42 42 42 42 43 43 43 43 43 42 43 43 43 43 43 43 43 43 43 44 44 44 44 44 44 44 44 44 45 45 45 45 45 46 46 46 46 46 46 46 47 47 47 47 47 46 46 47 48 48 48 49 49 50 50 50 49 49 49
44 44 43 43 42 42 42 42 42 42 41 41 41 42 42 42 43 43 43 42 42 43 43 43 44 44 44 43 43 43 43 43 44 44 44 44 45 45 45 45 45 45 45 46 46 45 45 46 46 46 46 46 46 46 46 45 46 46 46 47 47 47 48 48 49 48 48 47 48
43 43 42 42 41 42 42 42 42 41 41 41 41 41 42 42 42 43 43 42 42 42 43 43 43 43 43 43 43 43 44 44 44 44 44 45 45 45 46 46 46 46 46 46 46 46 46 46 46 46 46 45 45 45 45 45 45 45 45 45 45 45 46 46 46 46 47 47 47
41 41 41 41 41 41 41 41 41 41 41 41 41 41 41 41 42 42 42 42 42 42 43 42 43 43 43 43 44 44 45 45 45 45 45 45 46 47 47 47 47 47 47 47 47 47 47 47 47 46 46 45 45 45 45 45 45 44 44 44 44 44 44 45 45 45 45 45 46
41 41 41 40 40 40 40 41 41 41 41 40 40 40 41 41 41 42 42 42 42 42 42 42 42 42 42 43 44 45 45 46 46 46 46 46 47 47 47 47 47 47 47 47 48 48 48 47 47 46 46 45 45 45 45 45 45 45 45 45 44 44 44 45 45 45 45 45 45
40 40 40 40 40 40 40 40 40 40 40 39 40 40 40 40 40 41 41 41 41 41 41 41 41 42 42 43 44 45 46 46 46 46 46 46 47 47 47 47 47 47 47 47 49 49 49 47 47 47 46 46 46 46 46 45 45 45 45 45 45 45 45 45 45 45 45 45 45
40 39 39 39 39 39 40 40 40 39 39 39 39 40 40 40 40 40 40 41 41 41 40 40 41 41 42 42 43 44 45 46 46 46 46 46 47 47 47 46 46 47 47 48 49 48 47 46 46 46 46 47 46 46 46 46 46 45 45 45 45 45 45 45 45 45 45 45 46
39 39 38 39 39 39 39 39 39 39 39 39 39 39 40 40 40 40 40 40 41 41 40 40 41 41 41 41 41 42 44 46 46 46 46 46 47 47 46 46 46 47 47 48 48 47 46 46 46 46 46 47 46 46 46 46 46 46 46 46 45 45 45 45 45 45 45 45 46
38 38 38 38 38 38 38 38 38 38 38 38 39 39 40 40 40 40 40 40 40 41 41 41 41 41 41 41 42 43 44 46 46 46 46 46 46 46 46 46 46 46 46 46 46 46 46 46 46 46 46 46 46 46 46 45 45 45 45 45 45 45 45 45 45 45 45 46 46
37 37 37 38 38 38 38 37 37 38 38 39 39 39 40 40 40 40 40 40 41 41 41 41 41 41 42 42 43 44 45 46 46 46 46 46 46 46 46 46 46 46 46 46 46 46 46 45 45 45 45 45 46 46 45 45 44 44 44 44 44 44 44 44 43 44 44 44 45
37 37 37 37 37 38 38 37 37 38 38 39 39 39 40 40 40 40 40 40 41 41 41 42 42 42 42 43 45 45 45 45 45 45 45 45 45 46 46 46 46 46 46 46 46 45 45 44 44 43 43 44 44 45 45 44 44 43 43 43 43 43 43 43 43 43 43 43 44
37 37 37 37 37 37 37 37 38 38 39 39 39 39 39 39 39 39 40 40 41 41 41 42 42 43 43 45 45 45 45 44 44 44 44 44 44 44 45 45 46 46 46 46 45 45 44 43 43 42 42 43 43 44 44 44 43 42 42 42 43 42 42 43 43 43 43 43 43
36 37 37 37 37 37 37 37 38 39 39 39 39 39 39 39 39 39 40 41 41 41 41 41 42 44 45 45 45 45 44 44 44 43 43 43 43 43 44 44 45 46 46 46 46 45 45 44 42 42 41 41 42 43 43 42 42 42 42 42 42 41 41 41 42 42 42 42 43
36 36 36 36 37 37 37 38 38 39 39 39 38 38 39 39 39 39 40 41 41 41 41 42 43 44 45 45 44 44 43 43 43 42 42 42 42 42 42 43 44 45 45 46 46 46 45 44 43 42 40 40 40 41 41 40 40 40 40 40 41 41 40 40 40 41 41 42 42
36 36 36 36 36 37 37 37 38 39 39 38 38 38 38 38 39 39 40 41 40 40 41 42 43 44 44 44 43 42 42 41 41 41 41 41 41 41 41 41 43 44 44 45 46 46 45 44 43 42 40 38 39 39 39 39 39 39 39 39 39 39 39 39 39 39 39 40 41
35 35 36 36 36 36 36 37 38 39 39 38 38 38 38 38 38 39 40 41 40 40 41 42 43 43 44 43 42 42 41 40 40 40 40 40 40 40 40 40 41 43 45 46 45 45 45 44 43 42 41 39 38 38 38 38 38 38 37 37 38 38 38 38 38 38 38 39 39
35 35 35 35 36 36 36 37 38 39 38 37 37 37 38 37 37 38 40 40 40 40 40 41 42 42 42 41 41 41 40 40 39 39 39 39 39 39 39 39 40 42 44 45 45 45 44 44 43 42 41 39 38 38 38 38 38 37 37 37 36 36 37 37 37 37 37 38 39
34 35 35 35 36 36 36 37 38 38 38 37 37 37 37 37 37 38 39 39 39 39 40 40 41 40 40 40 40 40 40 40 39 38 38 37 37 37 38 38 39 41 43 44 44 44 44 43 42 42 41 40 39 38 38 38 37 37 36 36 36 36 36 36 36 36 36 37 38
34 35 35 36 36 36 36 37 38 38 38 37 37 37 37 36 37 37 38 38 39 39 40 40 40 39 39 39 39 39 39 39 39 39 38 37 37 37 37 38 39 41 43 44 44 43 43 43 42 41 40 40 39 38 38 38 37 36 36 36 36 36 36 36 36 36 36 36 36
34 35 35 36 36 36 36 36 37 38 38 37 37 36 36 36 37 37 38 38 39 38 38 39 38 38 38 38 38 38 38 38 38 38 38 37 36 37 37 38 39 41 42 43 43 43 43 42 41 41 40 39 38 38 37 37 37 36 36 35 35 35 35 36 35 35 35 35 36
34 35 35 36 36 36 37 37 37 38 39 38 38 36 35 35 36 37 38 38 38 38 37 37 37 37 37 38 38 38 37 37 37 37 37 37 36 36 37 37 39 41 42 43 42 42 42 42 41 40 39 38 37 37 37 37 37 37 36 36 36 35 35 35 35 35 35 36 36
34 35 35 36 36 37 37 37 37 38 38 38 38 36 35 35 35 35 37 38 38 37 37 37 37 38 38 38 38 37 37 37 37 37 37 37 36 36 36 37 38 40 42 43 42 42 41 41 40 40 39 38 37 37 36 36 37 36 36 36 36 36 36 36 36 36 36 36 37
34 35 35 36 36 37 37 38 38 38 38 37 37 36 35 34 33 34 36 38 37 36 36 36 37 38 39 39 38 38 37 36 36 36 36 36 36 36 35 35 36 39 41 42 42 42 41 40 40 39 38 37 36 36 36 36 36 36 35 35 35 35 35 35 35 35 36 36 36
34 34 35 35 36 36 36 37 37 36 36 37 36 36 35 33 33 34 36 38 37 36 36 36 36 37 38 38 37 37 37 36 35 35 36 36 35 35 35 35 35 37 39 41 42 42 41 40 39 38 38 36 36 36 36 36 36 35 35 34 34 34 34 35 35 35 35 36 37
33 34 34 35 35 36 36 36 35 35 35 36 36 35 34 33 34 35 36 37 37 36 35 35 35 35 36 36 36 37 37 36 35 35 35 35 35 34 34 34 34 35 38 40 41 41 42 41 40 38 37 36 35 35 35 35 35 35 34 34 34 34 34 34 35 35 35 35 36
33 33 33 34 35 36 36 35 35 34 34 35 35 34 33 33 34 35 36 37 36 36 35 34 34 34 35 36 36 36 36 36 36 35 35 35 35 34 34 33 33 34 36 39 40 41 41 41 40 39 37 35 35 35 35 35 35 34 34 34 34 34 34 34 34 35 34 34 36
33 33 34 34 34 35 35 35 34 34 34 35 35 34 34 34 35 36 36 36 36 35 34 33 33 33 34 35 35 35 35 36 36 35 35 34 34 34 34 33 33 34 35 38 39 40 40 41 40 39 37 36 35 35 34 34 34 34 34 33 33 33 33 34 34 34 34 34 35
34 34 35 35 35 35 35 34 34 34 34 35 34 34 34 35 36 36 36 36 35 34 33 33 33 33 34 34 33 33 33 34 35 35 34 34 34 34 34 33 32 33 34 36 38 39 39 40 40 38 37 35 35 35 35 34 34 33 33 33 33 33 33 33 34 34 33 33 34
34 35 35 35 35 35 34 34 33 34 34 35 34 34 34 35 36 35 35 35 34 34 33 33 33 33 34 34 33 33 32 32 33 33 33 34 34 34 34 33 32 33 33 35 37 38 39 39 39 38 37 35 35 35 35 34 33 33 32 32 32 32 32 33 33 33 33 33 33
MSLP
1011.38 1011.38 1011.42 1011.50 1011.58 1011.62 1011.70 1011.70 1011.74 1011.82 1011.86 1011.86 1011.86 1011.90 1011.94 1011.98 1011.98 1012.02 1012.06 1012.06 1012.06 1012.14 1012.18 1012.26 1012.30 1012.30 1012.38 1012.38 1012.34 1012.30 1012.18 1012.10 1012.06 1012.02 1011.98 1011.98 1011.98 1012.02 1012.02 1012.02 1012.02 1012.02 1012.02 1011.98 1011.98 1011.94 1011.94 1011.94 1011.90 1011.86 1011.74 1011.70 1011.66 1011.66 1011.66 1011.66 1011.58 1011.58 1011.50 1011.46 1011.42 1011.42 1011.42 1011.42 1011.38 1011.34 1011.38 1011.42 1011.42
1011.26 1011.26 1011.30 1011.38 1011.50 1011.58 1011.66 1011.70 1011.78 1011.86 1011.86 1011.90 1011.94 1011.98 1011.98 1011.98 1011.98 1012.02 1012.10 1012.10 1012.14 1012.18 1012.22 1012.30 1012.30 1012.38 1012.42 1012.42 1012.42 1012.38 1012.30 1012.22 1012.14 1012.10 1012.06 1012.02 1012.02 1012.06 1012.02 1012.02 1012.02 1012.02 1012.02 1012.02 1012.02 1011.98 1011.94 1011.94 1011.90 1011.82 1011.70 1011.70 1011.70 1011.66 1011.62 1011.62 1011.58 1011.58 1011.54 1011.46 1011.42 1011.42 1011.42 1011.38 1011.30 1011.30 1011.30 1011.30 1011.34
1011.26 1011.26 1011.30 1011.38 1011.46 1011.58 1011.62 1011.70 1011.82 1011.90 1011.98 1012.02 1012.02 1012.06 1012.06 1012.02 1012.06 1012.10 1012.14 1012.22 1012.26 1012.26 1012.30 1012.30 1012.34 1012.42 1012.42 1012.42 1012.42 1012.42 1012.38 1012.34 1012.26 1012.18 1012.14 1012.14 1012.10 1012.06 1012.02 1012.02 1012.02 1012.02 1012.02 1012.02 1012.02 1011.98 1011.94 1011.94 1011.86 1011.82 1011.70 1011.70 1011.66 1011.58 1011.54 1011.54 1011.58 1011.58 1011.50 1011.42 1011.42 1011.42 1011.42 1011.34 1011.26 1011.26 1011.30 1011.30 1011.30
1011.30 1011.30 1011.34 1011.42 1011.50 1011.58 1011.58 1011.70 1011.82 1011.94 1012.02 1012.10 1012.14 1012.14 1012.14 1012.14 1012.22 1012.26 1012.30 1012.34 1012.34 1012.34 1012.38 1012.38 1012.42 1012.42 1012.46 1012.50 1012.46 1012.46 1012.46 1012.42 1012.34 1012.30 1012.26 1012.18 1012.14 1012.10 1012.06 1012.06 1012.02 1012.02 1012.02 1012.02 1012.02 1011.98 1011.98 1011.98 1011.90 1011.82 1011.74 1011.66 1011.58 1011.50 1011.42 1011.42 1011.46 1011.50 1011.46 1011.42 1011.42 1011.42 1011.34 1011.30 1011.26 1011.26 1011.26 1011.22 1011.18
1011.38 1011.34 1011.42 1011.50 1011.58 1011.62 1011.66 1011.74 1011.86 1011.98 1012.02 1012.10 1012.14 1012.18 1012.22 1012.30 1012.30 1012.34 1012.38 1012.38 1012.42 1012.46 1012.50 1012.54 1012.50 1012.50 1012.50 1012.54 1012.54 1012.50 1012.50 1012.46 1012.38 1012.34 1012.30 1012.26 1012.14 1012.14 1012.10 1012.10 1012.06 1012.02 1012.02 1012.02 1012.02 1011.98 1011.98 1011.98 1011.90 1011.82 1011.70 1011.62 1011.58 1011.46 1011.38 1011.38 1011.42 1011.42 1011.42 1011.42 1011.38 1011.34 1011.30 1011.26 1011.18 1011.18 1011.18 1011.14 1011.10
1011.42 1011.46 1011.50 1011.58 1011.66 1011.70 1011.82 1011.90 1011.98 1012.02 1012.10 1012.14 1012.18 1012.26 1012.30 1012.34 1012.38 1012.38 1012.42 1012.42 1012.50 1012.58 1012.62 1012.58 1012.58 1012.58 1012.58 1012.58 1012.58 1012.54 1012.50 1012.46 1012.42 1012.42 1012.38 1012.30 1012.18 1012.14 1012.14 1012.10 1012.06 1012.02 1012.02 1012.02 1012.02 1011.98 1011.98 1011.98 1011.86 1011.78 1011.70 1011.62 1011.58 1011.46 1011.42 1011.46 1011.42 1011.38 1011.30 1011.30 1011.30 1011.30 1011.22 1011.14 1011.14 1011.10 1011.06 1011.02 1010.98
1011.58 1011.58 1011.62 1011.70 1011.78 1011.86 1011.98 1012.06 1012.14 1012.14 1012.18 1012.26 1012.30 1012.38 1012.42 1012.46 1012.50 1012.50 1012.50 1012.50 1012.58 1012.62 1012.66 1012.62 1012.66 1012.62 1012.62 1012.58 1012.58 1012.54 1012.54 1012.50 1012.46 1012.42 1012.42 1012.34 1012.30 1012.18 1012.14 1012.10 1012.06 1012.02 1012.02 1012.02 1011.98 1011.94 1011.94 1011.94 1011.86 1011.74 1011.66 1011.58 1011.50 1011.42 1011.42 1011.46 1011.42 1011.34 1011.30 1011.22 1011.18 1011.14 1011.14 1011.06 1011.02 1010.98 1010.98 1010.90 1010.86
1011.70 1011.74 1011.78 1011.82 1011.94 1012.02 1012.14 1012.22 1012.30 1012.30 1012.34 1012.42 1012.50 1012.58 1012.66 1012.62 1012.62 1012.62 1012.58 1012.58 1012.62 1012.66 1012.70 1012.70 1012.70 1012.70 1012.66 1012.62 1012.58 1012.58 1012.58 1012.54 1012.46 1012.42 1012.38 1012.34 1012.30 1012.18 1012.14 1012.10 1012.02 1012.02 1011.98 1011.98 1011.94 1011.90 1011.86 1011.86 1011.82 1011.70 1011.58 1011.54 1011.46 1011.42 1011.38 1011.42 1011.38 1011.30 1011.18 1011.06 1011.02 1011.02 1011.02 1010.98 1010.94 1010.90 1010.86 1010.82 1010.74
1011.82 1011.86 1011.90 1011.94 1012.02 1012.14 1012.30 1012.38 1012.46 1012.54 1012.58 1012.66 1012.74 1012.82 1012.86 1012.82 1012.78 1012.70 1012.66 1012.66 1012.70 1012.74 1012.74 1012.78 1012.78 1012.74 1012.70 1012.70 1012.62 1012.58 1012.58 1012.58 1012.50 1012.46 1012.42 1012.34 1012.30 1012.22 1012.14 1012.06 1012.02 1011.98 1011.90 1011.90 1011.90 1011.86 1011.86 1011.86 1011.74 1011.66 1011.58 1011.54 1011.42 1011.34 1011.30 1011.34 1011.30 1011.22 1011.10 1010.98 1010.94 1010.94 1010.94 1010.90 1010.90 1010.86 1010.82 1010.74 1010.66
1011.78 1011.90 1011.98 1012.02 1012.14 1012.26 1012.38 1012.50 1012.62 1012.70 1012.82 1012.90 1012.98 1012.98 1012.98 1012.94 1012.86 1012.82 1012.74 1012.70 1012.78 1012.78 1012.78 1012.82 1012.82 1012.78 1012.74 1012.70 1012.66 1012.66 1012.66 1012.62 1012.58 1012.50 1012.46 1012.42 1012.30 1012.22 1012.14 1012.10 1012.02 1011.94 1011.86 1011.86 1011.86 1011.86 1011.82 1011.78 1011.70 1011.58 1011.54 1011.46 1011.38 1011.34 1011.30 1011.30 1011.26 1011.14 1011.02 1010.90 1010.86 1010.86 1010.82 1010.82 1010.82 1010.82 1010.74 1010.66 1010.58
1011.58 1011.82 1011.98 1012.06 1012.18 1012.30 1012.38 1012.54 1012.66 1012.82 1012.94 1013.06 1013.10 1013.14 1013.10 1012.98 1012.94 1012.86 1012.86 1012.86 1012.82 1012.82 1012.86 1012.86 1012.86 1012.82 1012.78 1012.74 1012.70 1012.66 1012.66 1012.62 1012.58 1012.54 1012.46 1012.42 1012.34 1012.26 1012.18 1012.14 1012.06 1012.02 1011.90 1011.86 1011.86 1011.82 1011.78 1011.70 1011.62 1011.54 1011.46 1011.42 1011.38 1011.34 1011.30 1011.30 1011.22 1011.14 1010.98 1010.90 1010.82 1010.78 1010.74 1010.70 1010.70 1010.70 1010.66 1010.58 1010.54
1011.26 1011.58 1011.90 1012.14 1012.22 1012.30 1012.34 1012.50 1012.70 1012.86 1013.02 1013.14 1013.14 1013.14 1013.14 1013.06 1012.98 1012.94 1012.90 1012.86 1012.82 1012.82 1012.86 1012.86 1012.86 1012.86 1012.82 1012.78 1012.74 1012.70 1012.70 1012.66 1012.62 1012.58 1012.46 1012.42 1012.34 1012.26 1012.22 1012.14 1012.02 1011.98 1011.90 1011.82 1011.82 1011.74 1011.70 1011.62 1011.58 1011.46 1011.42 1011.34 1011.34 1011.30 1011.26 1011.22 1011.14 1011.10 1010.98 1010.94 1010.86 1010.82 1010.70 1010.62 1010.58 1010.58 1010.58 1010.58 1010.50
1010.86 1011.26 1011.70 1012.06 1012.18 1012.26 1012.34 1012.50 1012.70 1012.94 1013.14 1013.22 1013.18 1013.14 1013.14 1013.06 1012.98 1012.98 1012.90 1012.86 1012.86 1012.82 1012.82 1012.86 1012.86 1012.86 1012.86 1012.82 1012.78 1012.74 1012.70 1012.66 1012.58 1012.58 1012.50 1012.42 1012.30 1012.22 1012.14 1012.06 1011.98 1011.90 1011.82 1011.74 1011.70 1011.70 1011.66 1011.58 1011.54 1011.46 1011.38 1011.30 1011.30 1011.22 1011.18 1011.18 1011.14 1011.06 1010.98 1010.90 1010.86 1010.82 1010.70 1010.62 1010.58 1010.58 1010.62 1010.62 1010.54
1010.78 1011.02 1011.46 1011.86 1012.06 1012.18 1012.30 1012.46 1012.70 1012.98 1013.18 1013.26 1013.18 1013.14 1013.10 1013.06 1012.98 1012.98 1012.90 1012.82 1012.82 1012.78 1012.82 1012.82 1012.82 1012.82 1012.86 1012.86 1012.78 1012.74 1012.70 1012.66 1012.58 1012.54 1012.42 1012.34 1012.26 1012.14 1012.06 1011.98 1011.90 1011.82 1011.74 1011.70 1011.66 1011.62 1011.58 1011.54 1011.46 1011.42 1011.38 1011.30 1011.26 1011.22 1011.22 1011.22 1011.14 1011.10 1010.98 1010.94 1010.86 1010.78 1010.70 1010.66 1010.62 1010.62 1010.66 1010.62 1010.54
1011.02 1011.10 1011.34 1011.66 1011.94 1012.10 1012.22 1012.38 1012.66 1012.94 1013.14 1013.18 1013.18 1013.14 1013.10 1013.06 1013.02 1012.98 1012.86 1012.78 1012.74 1012.74 1012.74 1012.78 1012.78 1012.82 1012.82 1012.82 1012.78 1012.70 1012.66 1012.58 1012.54 1012.46 1012.38 1012.26 1012.14 1012.06 1011.98 1011.90 1011.78 1011.70 1011.66 1011.58 1011.54 1011.50 1011.46 1011.42 1011.42 1011.38 1011.34 1011.30 1011.30 1011.26 1011.22 1011.22 1011.18 1011.14 1011.06 1011.02 1010.94 1010.86 1010.82 1010.74 1010.70 1010.62 1010.58 1010.54 1010.50
1011.38 1011.34 1011.42 1011.62 1011.82 1011.90 1012.02 1012.18 1012.54 1012.82 1013.02 1013.14 1013.18 1013.14 1013.14 1013.10 1013.06 1012.94 1012.86 1012.74 1012.70 1012.70 1012.70 1012.70 1012.74 1012.78 1012.78 1012.74 1012.70 1012.66 1012.58 1012.50 1012.42 1012.38 1012.30 1012.18 1012.06 1011.98 1011.90 1011.82 1011.70 1011.62 1011.58 1011.50 1011.42 1011.42 1011.42 1011.38 1011.34 1011.34 1011.34 1011.30 1011.30 1011.30 1011.26 1011.22 1011.22 1011.14 1011.14 1011.10 1011.02 1010.98 1010.90 1010.86 1010.78 1010.70 1010.62 1010.58 1010.58
1011.58 1011.58 1011.62 1011.66 1011.62 1011.66 1011.82 1012.10 1012.46 1012.78 1012.98 1013.14 1013.18 1013.18 1013.18 1013.14 1013.06 1012.94 1012.82 1012.70 1012.66 1012.62 1012.66 1012.70 1012.74 1012.82 1012.82 1012.74 1012.70 1012.62 1012.54 1012.46 1012.42 1012.34 1012.30 1012.18 1012.06 1011.94 1011.86 1011.82 1011.70 1011.62 1011.54 1011.46 1011.38 1011.30 1011.30 1011.38 1011.38 1011.38 1011.38 1011.38 1011.38 1011.34 1011.34 1011.30 1011.26 1011.22 1011.14 1011.14 1011.10 1011.02 1010.98 1010.90 1010.86 1010.78 1010.70 1010.70 1010.66
1011.70 1011.70 1011.70 1011.58 1011.46 1011.46 1011.70 1012.10 1012.50 1012.82 1012.98 1013.14 1013.14 1013.22 1013.22 1013.14 1013.06 1012.94 1012.82 1012.70 1012.66 1012.66 1012.66 1012.70 1012.74 1012.78 1012.82 1012.78 1012.70 1012.62 1012.54 1012.46 1012.42 1012.34 1012.30 1012.18 1012.06 1011.98 1011.90 1011.86 1011.74 1011.66 1011.58 1011.42 1011.30 1011.26 1011.30 1011.46 1011.46 1011.42 1011.42 1011.42 1011.42 1011.42 1011.38 1011.34 1011.30 1011.30 1011.22 1011.14 1011.14 1011.10 1011.02 1010.98 1010.94 1010.86 1010.82 1010.78 1010.74
1011.66 1011.66 1011.58 1011.42 1011.34 1011.46 1011.78 1012.22 1012.58 1012.86 1013.02 1013.14 1013.22 1013.22 1013.18 1013.14 1013.06 1012.94 1012.78 1012.70 1012.70 1012.70 1012.70 1012.70 1012.74 1012.78 1012.78 1012.74 1012.70 1012.66 1012.58 1012.50 1012.42 1012.38 1012.30 1012.22 1012.10 1012.02 1011.98 1011.90 1011.82 1011.66 1011.50 1011.38 1011.34 1011.42 1011.54 1011.62 1011.62 1011.54 1011.46 1011.42 1011.42 1011.42 1011.42 1011.38 1011.38 1011.34 1011.30 1011.22 1011.18 1011.18 1011.14 1011.10 1011.02 1010.98 1010.98 1010.94 1010.86
1011.58 1011.58 1011.50 1011.38 1011.30 1011.54 1011.94 1012.38 1012.70 1012.98 1013.14 1013.14 1013.22 1013.22 1013.18 1013.14 1013.02 1012.90 1012.82 1012.74 1012.70 1012.74 1012.78 1012.74 1012.74 1012.74 1012.74 1012.74 1012.70 1012.70 1012.58 1012.50 1012.42 1012.38 1012.30 1012.22 1012.14 1012.10 1012.06 1011.98 1011.86 1011.70 1011.58 1011.54 1011.58 1011.62 1011.70 1011.70 1011.70 1011.62 1011.58 1011.50 1011.46 1011.46 1011.46 1011.42 1011.42 1011.38 1011.38 1011.34 1011.34 1011.30 1011.30 1011.26 1011.18 1011.14 1011.14 1011.10 1010.98
1011.54 1011.54 1011.42 1011.30 1011.38 1011.70 1012.14 1012.58 1012.86 1013.02 1013.14 1013.18 1013.22 1013.18 1013.14 1013.06 1012.98 1012.90 1012.86 1012.82 1012.78 1012.74 1012.74 1012.74 1012.70 1012.70 1012.70 1012.70 1012.66 1012.62 1012.58 1012.50 1012.46 1012.42 1012.34 1012.30 1012.22 1012.18 1012.14 1012.10 1012.02 1011.86 1011.86 1011.86 1011.86 1011.82 1011.78 1011.78 1011.78 1011.74 1011.66 1011.58 1011.58 1011.54 1011.54 1011.54 1011.54 1011.50 1011.50 1011.50 1011.54 1011.54 1011.50 1011.42 1011.42 1011.34 1011.30 1011.22 1011.14
1011.54 1011.38 1011.30 1011.30 1011.58 1012.02 1012.42 1012.74 1012.94 1013.06 1013.14 1013.18 1013.18 1013.14 1013.10 1013.02 1012.98 1012.94 1012.86 1012.86 1012.78 1012.74 1012.74 1012.74 1012.70 1012.70 1012.66 1012.62 1012.58 1012.58 1012.54 1012.50 1012.54 1012.50 1012.42 1012.38 1012.34 1012.30 1012.30 1012.22 1012.14 1012.10 1012.02 1012.02 1011.98 1011.98 1011.98 1011.98 1011.98 1011.94 1011.86 1011.78 1011.70 1011.66 1011.66 1011.66 1011.70 1011.70 1011.70 1011.74 1011.74 1011.74 1011.70 1011.70 1011.62 1011.58 1011.50 1011.42 1011.34
1011.38 1011.30 1011.30 1011.58 1011.94 1012.30 1012.58 1012.82 1012.94 1013.02 1013.10 1013.14 1013.14 1013.14 1013.06 1012.98 1012.98 1012.94 1012.86 1012.86 1012.78 1012.74 1012.74 1012.70 1012.70 1012.70 1012.66 1012.62 1012.58 1012.58 1012.58 1012.58 1012.58 1012.58 1012.54 1012.50 1012.46 1012.46 1012.42 1012.30 1012.26 1012.14 1012.10 1012.06 1012.10 1012.14 1012.18 1012.18 1012.18 1012.14 1012.10 1012.06 1011.94 1011.86 1011.86 1011.86 1011.86 1011.94 1011.98 1011.98 1011.98 1011.94 1011.90 1011.86 1011.82 1011.78 1011.74 1011.66 1011.58
1011.30 1011.30 1011.58 1011.86 1012.26 1012.50 1012.70 1012.86 1012.94 1012.98 1013.02 1013.10 1013.14 1013.10 1013.06 1013.02 1012.98 1012.94 1012.86 1012.82 1012.74 1012.70 1012.70 1012.70 1012.70 1012.66 1012.66 1012.62 1012.62 1012.66 1012.66 1012.66 1012.66 1012.66 1012.66 1012.62 1012.66 1012.66 1012.58 1012.42 1012.30 1012.22 1012.14 1012.18 1012.26 1012.30 1012.38 1012.38 1012.38 1012.34 1012.34 1012.30 1012.22 1012.14 1012.10 1012.10 1012.14 1012.18 1012.18 1012.14 1012.14 1012.10 1012.06 1012.02 1012.02 1011.98 1011.90 1011.86 1011.74
1011.42 1011.58 1011.86 1012.18 1012.46 1012.66 1012.78 1012.86 1012.94 1012.98 1013.02 1013.10 1013.14 1013.10 1013.02 1013.02 1012.98 1012.94 1012.86 1012.82 1012.70 1012.70 1012.70 1012.70 1012.66 1012.62 1012.58 1012.62 1012.70 1012.70 1012.70 1012.74 1012.74 1012.78 1012.82 1012.86 1012.86 1012.82 1012.66 1012.50 1012.42 1012.34 1012.30 1012.30 1012.34 1012.42 1012.46 1012.50 1012.54 1012.58 1012.58 1012.54 1012.46 1012.42 1012.38 1012.42 1012.42 1012.46 1012.46 1012.42 1012.38 1012.30 1012.30 1012.26 1012.18 1012.14 1012.10 1012.02 1011.94
1011.74 1011.98 1012.22 1012.46 1012.62 1012.74 1012.86 1012.90 1012.98 1012.98 1013.02 1013.10 1013.14 1013.10 1013.06 1013.02 1012.98 1012.90 1012.86 1012.78 1012.74 1012.70 1012.70 1012.70 1012.66 1012.62 1012.62 1012.70 1012.82 1012.86 1012.86 1012.94 1012.94 1012.98 1013.02 1013.02 1013.02 1012.94 1012.82 1012.66 1012.58 1012.54 1012.50 1012.46 1012.42 1012.46 1012.50 1012.58 1012.66 1012.74 1012.82 1012.82 1012.78 1012.70 1012.70 1012.70 1012.74 1012.78 1012.74 1012.70 1012.62 1012.58 1012.50 1012.46 1012.42 1012.38 1012.30 1012.22 1012.14
1012.10 1012.30 1012.46 1012.66 1012.78 1012.86 1012.94 1012.98 1013.02 1013.06 1013.10 1013.10 1013.14 1013.10 1013.10 1013.06 1012.98 1012.90 1012.86 1012.78 1012.78 1012.82 1012.82 1012.74 1012.74 1012.74 1012.78 1012.86 1012.94 1013.02 1013.10 1013.14 1013.22 1013.22 1013.26 1013.26 1013.18 1013.02 1012.90 1012.86 1012.78 1012.74 1012.70 1012.62 1012.58 1012.58 1012.58 1012.70 1012.82 1012.94 1013.02 1013.10 1013.10 1013.06 1013.06 1013.06 1013.02 1013.02 1013.02 1012.98 1012.90 1012.86 1012.78 1012.70 1012.70 1012.62 1012.54 1012.42 1012.30
1012.38 1012.54 1012.70 1012.82 1012.90 1012.98 1013.06 1013.14 1013.10 1013.10 1013.10 1013.14 1013.14 1013.10 1013.06 1013.02 1012.98 1012.90 1012.86 1012.86 1012.86 1012.90 1012.86 1012.86 1012.86 1012.86 1012.94 1012.98 1013.10 1013.18 1013.30 1013.38 1013.42 1013.46 1013.42 1013.42 1013.30 1013.22 1013.14 1013.06 1013.02 1012.94 1012.86 1012.78 1012.70 1012.70 1012.78 1012.86 1012.98 1013.10 1013.22 1013.30 1013.38 1013.38 1013.30 1013.30 1013.30 1013.26 1013.26 1013.22 1013.18 1013.14 1013.06 1012.98 1012.94 1012.86 1012.70 1012.58 1012.50
1012.58 1012.74 1012.86 1012.98 1013.06 1013.14 1013.18 1013.18 1013.14 1013.14 1013.14 1013.14 1013.10 1013.06 1013.06 1013.02 1012.98 1012.94 1012.86 1012.90 1012.94 1012.98 1012.98 1012.98 1013.02 1013.10 1013.14 1013.22 1013.30 1013.38 1013.46 1013.54 1013.58 1013.58 1013.58 1013.58 1013.46 1013.38 1013.30 1013.30 1013.22 1013.10 1012.94 1012.86 1012.86 1012.86 1012.94 1013.02 1013.14 1013.30 1013.42 1013.50 1013.58 1013.58 1013.54 1013.50 1013.50 1013.46 1013.46 1013.46 1013.42 1013.38 1013.30 1013.26 1013.18 1013.06 1012.94 1012.82 1012.70
1012.86 1012.98 1013.06 1013.14 1013.22 1013.30 1013.26 1013.18 1013.14 1013.14 1013.14 1013.14 1013.10 1013.06 1013.06 1013.06 1013.02 1012.98 1012.98 1012.98 1013.06 1013.10 1013.14 1013.18 1013.22 1013.30 1013.34 1013.42 1013.46 1013.54 1013.58 1013.62 1013.70 1013.74 1013.74 1013.70 1013.62 1013.58 1013.50 1013.46 1013.42 1013.30 1013.14 1013.02 1013.02 1013.02 1013.10 1013.18 1013.30 1013.42 1013.58 1013.66 1013.70 1013.70 1013.70 1013.70 1013.70 1013.66 1013.66 1013.66 1013.58 1013.58 1013.50 1013.42 1013.38 1013.30 1013.22 1013.06 1012.90
1013.14 1013.22 1013.30 1013.34 1013.34 1013.34 1013.30 1013.26 1013.18 1013.14 1013.14 1013.14 1013.14 1013.14 1013.10 1013.10 1013.06 1013.06 1013.06 1013.14 1013.22 1013.30 1013.30 1013.34 1013.42 1013.46 1013.54 1013.58 1013.66 1013.70 1013.78 1013.82 1013.86 1013.86 1013.86 1013.86 1013.82 1013.74 1013.70 1013.66 1013.58 1013.42 1013.30 1013.22 1013.22 1013.22 1013.26 1013.30 1013.46 1013.62 1013.70 1013.78 1013.86 1013.90 1013.90 1013.86 1013.86 1013.86 1013.86 1013.82 1013.78 1013.74 1013.70 1013.62 1013.58 1013.46 1013.38 1013.26 1013.10
1013.50 1013.50 1013.50 1013.46 1013.42 1013.42 1013.34 1013.30 1013.26 1013.18 1013.14 1013.18 1013.22 1013.22 1013.18 1013.18 1013.18 1013.22 1013.26 1013.30 1013.38 1013.42 1013.42 1013.46 1013.58 1013.62 1013.70 1013.74 1013.86 1013.90 1013.98 1014.02 1014.02 1014.02 1014.02 1014.02 1014.02 1014.02 1013.90 1013.82 1013.70 1013.58 1013.46 1013.42 1013.42 1013.42 1013.42 1013.50 1013.66 1013.78 1013.86 1013.94 1014.02 1014.10 1014.10 1014.06 1014.06 1014.02 1014.02 1014.02 1013.98 1013.94 1013.90 1013.82 1013.70 1013.62 1013.54 1013.38 1013.26
1013.74 1013.70 1013.66 1013.58 1013.50 1013.42 1013.38 1013.34 1013.30 1013.30 1013.22 1013.22 1013.30 1013.30 1013.34 1013.30 1013.34 1013.38 1013.42 1013.42 1013.50 1013.54 1013.58 1013.70 1013.74 1013.82 1013.86 1013.90 1013.98 1014.06 1014.14 1014.18 1014.18 1014.22 1014.22 1014.22 1014.18 1014.14 1014.06 1014.02 1013.90 1013.78 1013.66 1013.58 1013.58 1013.58 1013.62 1013.66 1013.74 1013.90 1014.02 1014.14 1014.18 1014.22 1014.22 1014.18 1014.18 1014.14 1014.14 1014.14 1014.14 1014.10 1014.02 1013.94 1013.86 1013.74 1013.62 1013.50 1013.38
1013.94 1013.86 1013.70 1013.62 1013.58 1013.50 1013.42 1013.42 1013.38 1013.34 1013.30 1013.30 1013.38 1013.42 1013.50 1013.50 1013.54 1013.58 1013.58 1013.58 1013.66 1013.70 1013.82 1013.86 1013.90 1013.94 1014.02 1014.02 1014.10 1014.14 1014.26 1014.30 1014.34 1014.38 1014.38 1014.38 1014.34 1014.30 1014.30 1014.22 1014.14 1014.02 1013.86 1013.70 1013.70 1013.70 1013.78 1013.86 1013.94 1014.02 1014.18 1014.26 1014.30 1014.34 1014.34 1014.30 1014.30 1014.26 1014.26 1014.26 1014.22 1014.18 1014.14 1014.02 1013.94 1013.86 1013.74 1013.62 1013.50
1014.06 1013.94 1013.82 1013.70 1013.66 1013.58 1013.54 1013.50 1013.46 1013.42 1013.42 1013.46 1013.50 1013.58 1013.62 1013.70 1013.74 1013.74 1013.74 1013.74 1013.82 1013.90 1013.98 1014.02 1014.06 1014.06 1014.10 1014.14 1014.22 1014.30 1014.34 1014.42 1014.46 1014.54 1014.54 1014.54 1014.50 1014.46 1014.46 1014.42 1014.42 1014.30 1014.06 1013.90 1013.82 1013.86 1013.90 1014.02 1014.06 1014.14 1014.30 1014.38 1014.42 1014.46 1014.42 1014.42 1014.38 1014.38 1014.38 1014.34 1014.30 1014.30 1014.26 1014.14 1014.06 1013.98 1013.86 1013.74 1013.58
1014.14 1014.02 1013.90 1013.86 1013.78 1013.70 1013.66 1013.62 1013.58 1013.58 1013.62 1013.66 1013.70 1013.74 1013.78 1013.82 1013.86 1013.86 1013.86 1013.82 1013.86 1013.98 1014.06 1014.14 1014.18 1014.22 1014.22 1014.30 1014.34 1014.42 1014.50 1014.58 1014.62 1014.70 1014.74 1014.70 1014.70 1014.62 1014.62 1014.58 1014.58 1014.46 1014.30 1014.10 1014.02 1013.94 1013.98 1014.06 1014.18 1014.30 1014.34 1014.42 1014.50 1014.54 1014.54 1014.46 1014.46 1014.42 1014.42 1014.42 1014.38 1014.34 1014.30 1014.26 1014.18 1014.10 1013.98 1013.86 1013.70
1014.26 1014.14 1014.02 1013.94 1013.86 1013.86 1013.82 1013.82 1013.82 1013.82 1013.86 1013.86 1013.90 1013.94 1013.94 1013.90 1013.86 1013.86 1013.86 1013.86 1013.94 1014.02 1014.14 1014.26 1014.30 1014.34 1014.38 1014.42 1014.50 1014.58 1014.70 1014.70 1014.78 1014.86 1014.86 1014.86 1014.86 1014.78 1014.74 1014.74 1014.74 1014.70 1014.54 1014.30 1014.18 1014.10 1014.02 1014.06 1014.18 1014.30 1014.42 1014.46 1014.58 1014.58 1014.58 1014.54 1014.50 1014.50 1014.50 1014.46 1014.42 1014.42 1014.42 1014.30 1014.26 1014.18 1014.06 1013.94 1013.74
1014.34 1014.26 1014.18 1014.14 1014.02 1014.02 1014.02 1014.02 1014.02 1014.06 1014.06 1014.06 1014.14 1014.14 1014.10 1014.02 1013.86 1013.86 1013.90 1013.94 1014.02 1014.14 1014.26 1014.38 1014.46 1014.54 1014.58 1014.58 1014.66 1014.74 1014.86 1014.86 1014.94 1014.98 1014.98 1014.98 1014.94 1014.94 1014.94 1014.94 1014.98 1014.90 1014.82 1014.58 1014.42 1014.30 1014.14 1014.10 1014.14 1014.30 1014.42 1014.54 1014.58 1014.62 1014.62 1014.58 1014.54 1014.50 1014.50 1014.46 1014.46 1014.46 1014.42 1014.38 1014.30 1014.22 1014.14 1014.06 1013.86
1014.42 1014.38 1014.30 1014.26 1014.22 1014.14 1014.14 1014.18 1014.22 1014.26 1014.30 1014.26 1014.30 1014.26 1014.18 1014.10 1014.02 1014.02 1014.06 1014.14 1014.14 1014.26 1014.34 1014.50 1014.62 1014.70 1014.74 1014.82 1014.90 1014.98 1015.02 1015.02 1015.06 1015.06 1015.06 1015.06 1015.10 1015.10 1015.14 1015.14 1015.14 1015.14 1014.98 1014.82 1014.62 1014.46 1014.30 1014.18 1014.18 1014.30 1014.46 1014.58 1014.62 1014.66 1014.66 1014.62 1014.58 1014.54 1014.50 1014.50 1014.46 1014.46 1014.42 1014.42 1014.34 1014.30 1014.22 1014.14 1014.02
1014.58 1014.46 1014.42 1014.42 1014.38 1014.38 1014.38 1014.38 1014.42 1014.46 1014.46 1014.42 1014.42 1014.42 1014.30 1014.26 1014.14 1014.18 1014.26 1014.30 1014.38 1014.46 1014.58 1014.66 1014.78 1014.86 1014.90 1014.98 1015.10 1015.14 1015.22 1015.26 1015.26 1015.22 1015.22 1015.22 1015.26 1015.30 1015.30 1015.34 1015.30 1015.30 1015.14 1014.98 1014.74 1014.58 1014.42 1014.30 1014.26 1014.34 1014.50 1014.62 1014.66 1014.70 1014.70 1014.66 1014.58 1014.54 1014.50 1014.50 1014.46 1014.42 1014.42 1014.38 1014.38 1014.34 1014.30 1014.18 1014.10
1014.66 1014.58 1014.58 1014.58 1014.54 1014.54 1014.58 1014.58 1014.62 1014.66 1014.66 1014.62 1014.58 1014.58 1014.46 1014.38 1014.34 1014.38 1014.42 1014.46 1014.58 1014.62 1014.70 1014.78 1014.94 1014.98 1015.02 1015.14 1015.18 1015.30 1015.34 1015.38 1015.42 1015.42 1015.42 1015.42 1015.42 1015.42 1015.42 1015.42 1015.42 1015.38 1015.30 1015.14 1014.86 1014.70 1014.54 1014.42 1014.30 1014.38 1014.54 1014.66 1014.70 1014.70 1014.70 1014.66 1014.58 1014.54 1014.50 1014.50 1014.50 1014.42 1014.42 1014.38 1014.34 1014.34 1014.30 1014.22 1014.14
Wind_Speed
3 4 3 3 3 3 2 2 2 2 2 2 2 2 2 2 3 2 2 2 2 2 2 1 1 2 2 3 3 3 3 3 2 3 3 3 2 2 2 2 2 2 2 3 3 2 2 2 2 2 2 2 2 2 2 2 2 3 3 4 4 4 5 6 6 7 8 9 8
4 4 4 4 4 3 3 3 2 2 2 2 2 2 2 2 3 3 2 2 2 2 2 1 2 2 2 3 3 3 3 3 3 3 3 3 2 2 2 2 2 2 2 3 3 2 2 2 2 2 2 2 2 2 2 2 2 3 4 5 4 4 4 5 6 7 7 8 7
4 4 4 4 4 4 4 3 3 3 3 2 2 2 2 2 3 3 2 2 2 2 2 2 2 2 3 3 3 3 3 3 3 3 3 3 2 2 2 2 2 2 2 2 2 2 2 2 2 2 2 2 2 2 2 2 2 3 4 5 4 3 3 4 5 5 5 5 6
4 4 5 5 5 5 4 4 4 4 4 3 3 3 3 3 3 2 2 2 2 2 2 2 2 2 3 3 4 4 4 4 4 4 3 3 3 3 3 2 2 2 2 2 2 3 3 3 2 2 2 2 3 3 2 2 3 3 3 3 3 3 3 4 4 4 4 4 5
4 4 4 5 5 5 5 5 5 5 4 3 3 3 3 3 3 2 2 3 3 3 3 3 2 2 3 3 4 4 4 4 4 4 4 4 4 4 4 3 3 3 2 2 3 3 3 2 2 2 2 3 2 2 2 2 2 3 3 2 3 3 4 4 3 3 3 4 4
4 5 5 5 6 5 5 5 5 5 4 4 4 4 3 3 3 3 3 3 3 3 3 3 3 3 3 4 4 4 4 4 4 4 4 5 5 5 5 5 4 4 3 3 3 3 3 2 2 2 2 2 3 3 3 2 2 3 3 3 3 3 3 4 3 3 4 4 5
5 6 6 6 6 6 5 5 5 5 4 4 5 5 4 3 3 3 3 3 3 3 3 3 3 4 4 4 4 4 4 5 4 5 5 5 5 6 6 6 5 5 4 4 3 3 2 2 2 2 3 2 3 3 3 3 3 3 3 4 3 3 3 4 3 3 4 6 6
6 7 7 7 7 6 6 5 5 5 5 4 5 5 5 4 4 4 3 3 3 3 3 3 4 4 4 4 4 4 5 5 5 5 5 5 6 6 6 6 6 5 5 4 4 4 3 2 3 3 3 3 3 3 3 3 4 4 4 4 3 3 3 3 3 3 4 6 6
7 7 7 7 7 7 6 6 6 5 5 5 5 4 4 4 4 4 3 3 3 3 3 3 4 4 5 5 5 5 5 5 5 6 6 6 6 6 6 6 6 6 5 4 4 4 4 3 3 3 3 3 3 3 3 3 4 5 5 5 4 3 3 3 3 4 4 5 6
8 7 7 8 8 7 7 7 6 6 6 5 4 4 4 4 4 4 3 3 3 3 3 4 4 5 5 5 5 5 5 5 5 5 6 6 6 6 6 6 6 6 6 5 4 4 4 4 4 4 4 4 4 4 4 4 5 5 5 4 4 4 4 4 4 5 5 5 6
10 9 8 7 7 7 7 7 6 6 5 4 4 3 3 4 4 3 3 3 3 3 4 4 4 4 4 4 4 4 5 4 5 5 5 6 6 6 6 6 6 6 6 6 5 4 4 4 4 5 5 4 4 4 4 4 5 6 6 5 5 5 6 5 5 5 5 5 6
12 10 9 8 7 7 7 7 6 5 4 4 3 3 3 3 3 3 3 3 3 3 3 4 4 4 4 4 4 4 5 5 5 5 5 6 6 6 6 6 6 6 6 6 5 4 3 4 4 5 5 4 4 3 4 4 5 6 6 6 6 6 6 7 5 4 4 4 5
13 12 10 8 8 7 7 7 6 4 3 3 2 2 2 2 2 3 3 3 3 3 3 3 3 3 3 4 4 4 4 5 5 5 5 5 6 6 6 6 6 6 6 5 4 3 3 3 4 4 4 4 3 3 3 4 4 5 6 6 6 6 7 7 6 4 4 4 5
12 13 11 10 8 8 7 7 5 4 3 2 2 2 2 2 2 2 2 2 2 3 3 3 3 3 3 4 4 4 4 4 5 5 5 5 5 5 6 5 5 5 5 4 3 3 3 3 3 3 3 3 3 2 2 2 3 3 4 5 5 5 6 6 6 5 4 5 6
10 11 11 10 9 8 7 7 5 4 2 2 2 1 2 1 1 2 2 2 2 2 2 3 3 3 4 4 4 4 4 4 5 5 5 6 6 5 5 5 5 5 4 4 3 3 3 3 2 1 1 2 3 3 3 2 2 1 2 2 3 3 4 4 4 4 4 4 5
9 10 10 10 9 8 8 7 5 4 2 2 1 2 2 1 1 1 2 2 2 2 3 3 3 4 4 4 4 4 4 4 4 5 5 6 6 6 5 5 5 5 4 4 3 2 2 2 1 1 2 3 3 4 4 4 4 4 4 4 4 4 4 4 4 4 3 3 3
8 9 9 9 9 9 8 7 5 4 2 1 2 2 2 2 1 1 2 2 2 3 3 3 3 3 4 4 4 4 4 4 5 5 5 6 6 5 5 5 5 5 4 3 2 0 1 2 2 3 4 4 5 5 5 6 6 6 6 6 6 6 6 6 6 5 5 5 4
8 8 8 9 9 10 9 8 5 3 2 1 1 2 2 2 2 2 2 3 3 3 3 3 3 3 3 4 4 4 4 4 5 5 6 6 5 5 5 6 5 5 4 3 2 3 4 4 4 4 5 5 5 6 6 6 6 7 7 7 8 8 7 7 7 7 7 7 6
8 8 8 9 10 10 9 7 5 3 2 1 1 2 2 2 2 2 3 3 3 3 3 3 3 3 3 4 4 4 4 4 5 5 6 5 5 5 5 6 5 5 4 5 6 7 7 6 5 5 5 6 6 6 6 6 6 7 7 7 8 8 8 7 7 7 6 6 7
8 8 8 9 10 9 8 6 3 2 1 1 1 2 2 3 3 3 3 4 4 3 3 2 2 3 3 3 3 3 3 3 4 5 5 5 5 6 6 6 6 7 8 8 9 8 8 6 5 5 5 6 6 6 6 6 7 7 7 7 7 8 8 7 7 7 7 6 7
8 8 8 9 9 8 7 4 2 1 0 1 1 2 3 3 3 4 4 4 3 3 2 2 2 2 2 2 3 3 3 3 4 5 5 5 6 6 6 6 7 8 9 9 8 8 8 7 7 6 6 6 6 7 7 7 7 7 7 7 7 8 8 8 8 8 8 8 8
8 8 9 9 9 7 5 3 1 1 0 1 1 2 3 3 4 4 3 3 3 3 2 2 2 2 2 2 3 4 4 4 4 5 5 5 6 6 6 6 7 8 8 8 8 8 8 8 8 7 7 6 7 7 8 8 8 8 8 8 8 8 8 8 8 8 8 8 8
8 9 9 9 7 5 4 2 2 1 1 2 2 3 3 3 3 3 3 3 3 3 3 3 3 2 2 3 4 5 5 5 5 6 6 7 7 6 6 5 6 7 7 8 8 8 7 7 7 8 7 7 7 8 9 9 9 8 8 8 8 8 8 8 8 8 8 8 8
9 9 8 7 5 4 3 2 2 2 2 3 2 3 3 3 3 3 3 3 3 4 4 3 3 2 3 4 5 6 5 6 7 7 8 8 7 7 6 5 5 6 7 7 7 7 7 6 6 6 7 7 7 8 9 10 9 9 8 8 8 8 8 8 8 8 8 8 8
9 9 8 6 5 4 3 3 3 3 3 3 3 3 3 3 3 3 3 4 5 5 5 4 3 3 4 6 6 6 7 7 8 8 8 9 8 7 6 5 5 6 6 7 10 10 10 8 7 6 6 6 7 8 9 10 10 9 9 8 8 8 8 8 9 9 9 9 8
9 8 7 5 4 4 3 3 3 3 3 3 3 3 3 3 3 3 4 5 6 6 5 5 4 5 6 7 7 7 7 8 8 8 8 8 8 8 7 6 6 5 6 8 11 13 13 13 11 9 7 6 7 7 8 8 9 9 9 9 8 8 8 8 8 9 9 8 8
8 7 6 5 4 4 3 2 2 3 3 3 3 3 3 3 3 4 5 6 6 6 5 5 5 6 6 7 8 8 8 7 8 8 8 8 8 8 8 7 6 5 5 9 12 14 14 14 14 12 10 7 7 7 7 7 8 8 8 8 9 9 9 8 8 8 8 8 8
7 6 5 5 4 3 3 2 2 3 3 3 3 3 3 4 4 5 5 7 6 5 5 5 5 5 5 6 7 8 8 8 7 7 7 7 8 9 9 8 7 6 7 11 13 14 15 15 15 14 12 9 7 6 6 7 7 7 7 7 8 8 8 8 8 8 8 8 8
6 5 5 4 4 3 3 3 3 3 3 3 3 3 4 4 4 5 6 7 6 6 5 5 5 5 5 5 7 7 8 7 6 6 6 7 8 9 9 9 8 7 8 12 13 14 15 15 15 14 13 10 7 5 5 6 6 6 6 6 7 7 8 8 7 7 8 8 8
5 5 4 4 4 3 3 3 3 3 3 2 3 4 4 5 5 5 6 7 6 6 5 5 5 5 6 6 6 7 7 7 6 6 7 8 8 9 9 9 8 8 9 12 13 14 15 15 15 14 13 12 9 7 6 6 6 6 6 6 7 8 8 8 8 8 8 8 8
5 4 3 3 3 3 3 3 3 3 2 3 3 4 5 5 5 6 6 6 6 5 6 6 7 7 7 7 7 7 7 7 6 7 7 8 8 8 8 8 9 9 10 13 13 14 14 15 15 14 13 12 9 7 6 6 6 6 6 6 7 8 8 8 8 8 9 8 8
4 3 3 3 3 3 3 3 2 2 2 3 4 4 5 5 5 6 6 5 5 6 6 7 8 8 7 7 8 8 7 7 7 7 7 7 7 7 8 8 9 10 11 13 13 13 14 14 14 14 13 12 9 7 6 6 6 5 6 6 7 8 8 7 7 8 9 9 8
4 3 3 3 3 4 3 3 2 2 3 4 5 5 5 5 5 5 5 5 5 6 6 6 7 7 7 7 8 8 8 8 8 8 8 8 8 8 8 8 8 9 12 13 12 12 13 13 13 13 13 12 9 7 6 6 5 5 5 6 7 7 8 8 8 8 9 9 8
4 4 3 3 4 4 4 3 3 3 4 5 6 5 5 4 4 4 4 5 5 5 5 5 6 6 7 7 8 8 8 7 8 8 8 8 8 8 8 7 7 9 12 13 12 12 12 12 12 12 12 11 8 6 6 6 5 5 5 6 6 7 8 8 8 9 9 8 7
5 4 4 4 4 4 4 5 4 5 5 6 6 5 5 3 3 2 3 5 5 5 5 4 5 6 7 8 8 8 8 8 8 8 8 8 8 9 9 8 8 10 13 13 12 11 11 11 12 12 11 9 7 6 5 6 5 5 5 6 6 7 7 8 8 8 8 8 7
5 5 4 4 4 4 5 5 6 6 6 6 6 5 4 3 2 1 3 6 6 6 6 5 5 6 7 8 8 8 9 9 9 8 8 8 8 9 9 9 9 11 13 12 12 11 10 10 11 11 10 7 5 5 5 5 4 5 5 6 6 7 7 7 7 7 7 7 7
6 5 4 4 4 5 6 6 6 6 6 6 6 5 4 3 2 1 4 6 7 7 6 6 5 6 7 8 8 8 8 8 8 8 8 8 8 9 9 9 9 11 12 12 11 11 10 9 10 10 9 7 5 5 4 4 4 4 4 5 6 6 6 6 6 6 7 7 7
5 5 4 4 5 6 6 6 6 5 5 5 5 5 4 3 2 3 5 6 6 7 7 6 6 6 6 7 8 8 8 8 8 8 8 8 9 9 9 9 9 9 10 12 11 11 10 9 9 9 8 6 5 4 4 4 4 4 4 5 5 5 5 5 5 5 6 8 9
5 5 4 5 5 6 6 7 6 5 5 5 5 5 4 4 4 5 6 6 6 7 7 7 6 6 7 8 7 7 7 8 8 8 8 9 9 10 9 8 8 8 9 11 11 10 10 9 8 9 8 6 5 4 4 4 4 4 5 5 5 5 5 5 5 5 6 7 10
5 5 5 6 6 6 6 6 6 5 4 5 6 5 5 5 6 6 6 6 6 6 7 7 7 7 7 8 8 7 7 7 7 8 8 8 9 10 9 7 7 7 8 10 10 10 9 9 8 8 8 6 5 4 4 3 4 5 5 5 5 5 4 5 4 5 5 6 8
5 5 6 6 6 6 6 6 6 5 5 5 6 5 5 5 6 6 6 6 6 6 6 6 6 7 7 8 7 7 7 7 7 7 7 8 8 8 8 6 5 6 7 9 9 9 9 8 8 7 7 6 4 4 4 4 4 5 5 5 5 5 4 5 4 5 5 6 6
Wind_Direction
163 160 159 158 158 154 149 140 134 129 131 137 137 137 136 130 122 116 109 104 100 93 81 63 43 18 359 348 349 351 357 5 10 14 18 20 9 356 346 335 321 308 300 295 294 287 279 267 264 262 261 256 253 252 247 238 230 227 227 227 230 231 229 227 228 227 225 224 226
161 156 153 152 149 145 137 129 120 114 111 113 120 124 125 121 116 112 105 99 94 89 79 64 42 18 2 354 354 355 356 359 360 1 4 4 357 351 341 332 319 309 301 295 291 285 276 264 256 256 255 253 248 247 245 236 228 230 232 232 234 233 232 231 232 230 227 224 225
153 146 143 143 144 142 136 127 119 111 107 103 101 103 102 99 98 96 92 86 78 71 61 52 35 17 5 355 353 354 354 351 349 348 347 345 344 343 339 332 321 309 300 292 286 280 276 269 261 256 252 246 240 241 241 232 220 225 232 234 235 234 233 234 233 231 227 224 221
142 138 137 138 139 137 133 126 122 117 113 108 101 94 88 83 80 77 74 69 61 51 41 32 22 13 6 358 352 349 348 346 344 341 336 334 335 336 334 329 320 310 301 292 283 278 275 270 265 261 256 251 246 244 240 227 215 220 229 233 233 232 234 237 234 230 225 225 220
132 130 129 129 126 122 118 116 116 115 112 108 103 96 88 81 75 70 64 58 48 34 22 12 10 8 5 359 350 345 343 342 343 340 335 330 329 329 329 324 316 308 300 290 282 277 274 268 265 261 259 255 252 250 246 235 224 225 230 232 230 231 233 237 234 230 226 226 221
126 119 114 113 110 107 105 103 104 104 103 98 94 90 86 77 70 64 57 52 40 25 14 10 10 7 2 358 351 345 342 340 341 337 332 326 325 324 323 319 313 308 302 291 282 275 270 265 264 262 258 254 257 257 255 246 239 237 238 238 232 230 232 234 232 228 226 227 224
119 112 107 102 99 96 94 92 91 91 90 88 84 80 76 70 64 58 53 48 37 25 17 17 12 6 360 355 350 346 342 338 335 332 329 323 321 320 318 316 313 308 301 293 286 278 268 258 263 264 261 255 255 253 247 237 240 243 245 244 236 232 231 234 231 228 226 228 226
107 103 99 95 90 85 81 76 76 77 79 77 75 72 69 65 59 55 51 46 38 26 17 16 9 3 357 353 349 345 339 335 331 329 327 322 319 316 315 313 310 306 301 294 287 281 274 264 262 261 260 258 255 248 238 229 234 240 247 251 247 239 235 237 234 231 231 231 230
104 98 94 90 86 81 75 69 67 68 70 70 66 65 64 63 58 54 51 47 37 26 17 12 3 358 355 351 346 341 337 333 328 325 323 321 317 315 313 311 308 305 301 294 287 279 274 269 263 259 257 256 256 251 243 229 234 240 246 253 253 247 242 241 238 237 237 237 237
112 105 99 93 90 86 82 76 71 69 69 68 60 56 56 58 53 50 47 42 32 24 17 8 360 355 351 347 342 337 333 329 325 321 319 317 314 312 309 307 304 302 299 296 289 281 273 268 264 261 259 257 259 257 253 241 241 243 248 253 254 254 250 245 239 237 238 240 242
118 112 106 101 98 95 91 85 79 74 70 66 57 50 46 46 43 42 39 34 28 20 14 3 355 350 345 341 336 332 329 325 321 318 314 311 309 306 302 299 297 295 293 292 289 282 273 266 265 264 263 262 261 259 256 248 247 249 251 256 258 258 257 252 242 237 236 239 243
122 117 111 107 104 100 96 92 87 79 73 66 57 50 44 39 35 34 32 29 25 18 9 358 351 344 339 335 331 327 325 321 317 313 310 306 303 300 296 294 291 289 287 286 283 277 269 264 266 268 269 268 266 262 257 252 251 253 256 260 261 262 261 260 254 249 246 244 245
124 121 117 113 109 105 101 97 93 86 77 68 59 49 43 35 29 31 32 28 24 15 4 354 348 341 335 330 325 321 318 316 313 310 306 303 300 298 295 293 290 287 285 282 276 269 263 261 264 269 275 280 284 282 275 263 259 260 263 267 268 268 269 272 274 274 270 260 255
122 122 121 120 116 111 106 103 100 94 85 69 55 42 33 24 21 29 35 32 25 14 4 355 350 345 338 327 318 313 310 310 310 308 305 303 300 298 297 295 292 288 284 278 267 257 251 251 256 268 285 302 318 324 318 294 280 276 278 281 282 283 286 290 295 292 282 267 262
118 120 121 122 121 118 113 108 105 99 88 65 43 28 18 11 9 18 31 37 29 19 10 3 355 346 337 326 317 312 310 311 312 312 311 310 308 305 303 300 297 292 284 273 258 244 234 232 231 251 326 358 7 13 17 17 6 351 340 330 324 321 321 322 321 312 296 278 273
117 119 122 125 124 120 113 107 103 97 85 60 32 12 3 351 348 3 27 38 33 27 20 11 358 347 338 331 327 323 321 321 322 322 321 319 317 316 315 314 312 306 295 279 257 233 214 206 160 102 75 59 53 52 55 59 62 61 59 55 47 36 26 17 13 7 355 332 312
123 124 126 126 120 112 104 98 96 90 78 46 16 359 346 333 335 359 21 36 33 27 19 9 360 348 340 337 337 334 331 331 332 331 329 323 323 327 330 331 327 320 311 295 284 233 117 98 86 85 83 81 78 76 74 73 73 71 70 68 64 59 54 49 47 45 42 39 28
132 131 127 121 110 102 96 92 89 82 65 28 1 344 333 331 338 353 11 24 27 22 14 3 357 348 342 339 339 337 336 338 336 334 330 324 331 340 345 341 333 327 324 330 15 47 61 68 72 80 85 87 85 83 81 78 75 73 70 67 65 62 59 55 54 54 53 52 49
134 129 120 110 101 95 91 87 82 73 49 7 343 334 333 335 342 355 7 14 18 16 8 357 350 346 342 339 337 336 336 338 338 335 332 331 347 357 357 350 346 352 9 32 49 58 63 66 67 74 82 87 85 81 78 74 72 68 66 63 60 58 55 53 52 51 51 51 52
128 121 113 104 95 90 86 83 79 69 19 338 335 339 342 347 354 3 7 8 7 4 1 351 346 344 339 336 333 332 334 341 345 342 342 349 6 12 12 10 16 29 41 49 58 65 68 66 61 63 71 79 78 75 71 67 64 62 60 58 54 51 48 46 45 45 45 45 49
123 117 107 95 88 85 84 86 90 100 293 330 348 353 355 358 4 7 5 0 358 357 357 354 350 345 341 337 339 343 348 358 358 357 1 11 19 23 27 31 39 45 49 52 56 59 59 55 48 46 50 61 67 67 64 59 56 54 52 51 49 45 42 39 37 36 37 40 44
119 108 95 85 83 85 90 102 119 134 91 25 13 7 5 6 7 5 1 355 357 4 10 8 3 357 353 354 4 9 11 16 14 18 24 29 29 30 34 43 50 54 56 55 52 50 47 43 37 33 32 40 52 57 57 53 49 46 45 44 44 43 40 37 33 31 31 34 39
106 94 85 80 82 87 97 109 115 102 75 49 29 18 12 12 9 5 2 2 13 24 27 23 18 12 13 23 28 27 26 33 37 39 39 37 31 27 29 41 50 55 57 57 53 48 44 39 34 29 26 28 40 49 52 50 46 42 38 37 39 39 38 36 33 32 31 32 36
91 85 81 80 82 87 94 98 93 81 66 51 36 25 19 15 12 11 12 20 34 37 36 31 25 29 40 45 42 40 43 52 54 50 44 37 28 19 16 26 40 50 57 62 62 58 53 44 37 31 27 25 34 42 47 48 44 40 35 32 33 34 34 32 31 31 32 33 36
82 81 80 80 83 86 86 86 80 74 65 54 41 31 25 21 19 19 26 37 43 42 37 29 30 45 55 54 50 50 53 59 57 52 44 36 25 16 13 20 33 43 53 64 68 68 65 59 51 41 32 27 31 38 43 45 42 39 34 31 30 30 30 29 28 28 30 32 35
81 80 80 79 80 81 80 78 77 73 66 57 48 37 29 25 24 28 37 46 46 42 36 31 41 53 58 57 56 57 58 58 54 49 43 35 24 18 17 23 30 39 51 60 65 67 66 65 61 54 45 34 33 37 41 42 40 38 36 32 30 29 27 26 24 24 25 28 31
83 82 80 77 77 76 76 75 76 72 66 58 50 41 35 30 31 39 47 54 49 43 39 41 51 57 61 64 65 64 62 57 51 47 42 35 28 24 23 23 22 33 53 62 65 66 66 66 64 61 55 45 40 40 42 42 41 39 37 34 32 29 27 25 22 20 20 22 25
83 82 78 74 73 73 75 74 77 72 67 59 50 44 40 39 39 48 56 60 53 47 46 52 56 59 63 69 72 71 68 61 53 46 41 36 31 28 25 21 13 28 55 66 67 67 67 67 66 64 61 55 48 44 44 45 43 41 39 37 33 30 28 25 21 18 17 19 21
76 75 72 70 72 72 73 75 76 72 66 59 49 45 44 44 44 53 60 63 57 54 54 59 60 63 67 74 76 76 72 65 57 49 41 36 32 29 25 20 10 24 50 68 70 70 68 67 66 65 63 59 54 47 44 45 43 42 41 39 34 31 27 25 20 17 16 16 19
62 65 67 67 71 72 72 72 69 64 58 56 47 45 45 46 47 55 62 65 60 59 61 67 69 71 73 76 76 73 69 65 59 52 45 39 33 28 23 18 9 20 42 63 70 71 69 67 65 64 62 59 56 51 47 46 45 44 42 40 35 30 27 24 21 18 15 13 16
46 52 60 66 69 70 69 66 58 51 49 54 48 44 43 44 48 54 62 67 67 68 71 75 75 75 75 76 74 70 65 61 57 53 49 44 36 30 23 17 11 19 36 55 67 70 68 67 65 63 60 58 54 49 45 44 45 45 43 40 35 29 25 21 17 14 12 11 12
32 40 51 57 59 62 63 59 47 44 49 57 52 46 41 39 46 53 61 70 76 76 75 77 79 81 81 81 78 74 68 61 57 54 51 47 40 33 27 21 14 18 30 46 61 68 69 68 66 63 61 57 54 47 42 41 44 45 46 43 37 31 24 18 14 11 8 8 10
21 29 40 44 43 47 51 54 47 46 51 56 52 46 40 34 39 47 59 74 79 78 76 77 83 86 88 87 84 79 73 65 60 56 52 49 44 39 33 27 18 17 23 35 52 63 69 69 66 64 61 58 53 45 37 35 39 42 44 43 37 31 24 18 13 8 5 4 5
13 20 28 33 31 36 44 52 51 49 49 50 49 45 39 31 33 41 58 79 82 79 77 77 84 90 93 92 87 83 77 69 62 57 53 50 47 43 39 32 20 14 16 24 38 53 65 70 67 64 61 58 53 43 34 31 33 36 39 39 35 29 22 16 11 7 2 358 359
7 12 18 25 27 34 43 50 48 46 44 45 45 41 33 26 30 48 77 96 95 90 83 78 82 89 93 92 88 83 79 73 66 60 56 53 50 46 41 34 21 12 11 17 24 37 54 69 69 67 64 60 53 42 32 27 30 33 35 36 32 26 19 12 8 3 358 353 354
3 7 13 22 32 41 45 46 44 43 42 42 40 33 22 8 7 74 115 117 108 100 92 84 82 87 89 89 85 82 80 77 72 66 60 56 53 48 41 33 21 11 8 11 13 19 34 59 69 70 67 63 54 41 31 24 26 30 33 34 30 23 15 8 4 1 356 351 354
2 6 14 25 40 47 48 45 42 41 42 43 38 28 14 355 359 90 122 124 113 105 97 89 84 84 86 88 87 85 84 83 79 74 68 61 56 50 43 34 21 10 5 6 7 7 14 38 61 69 70 65 54 41 29 19 19 24 29 30 26 20 12 4 2 0 357 352 357
1 7 17 32 43 48 48 45 40 39 41 47 41 31 16 2 32 84 105 113 109 105 99 91 84 82 84 87 88 87 85 85 83 78 71 64 59 53 46 36 23 10 3 2 3 1 3 18 49 65 71 69 57 43 28 14 12 14 18 20 19 15 10 4 3 2 1 356 360
2 13 28 39 44 48 47 44 39 37 42 51 47 38 29 32 59 77 87 92 95 97 95 91 87 86 87 88 86 83 80 80 79 76 71 65 59 55 49 41 26 12 3 360 1 359 360 8 39 61 72 74 64 48 29 11 5 6 9 10 9 8 7 5 4 4 2 358 359
11 26 38 45 47 48 47 44 38 37 42 54 51 45 40 49 66 75 81 84 88 91 92 92 92 94 95 94 91 87 82 78 75 73 70 66 60 56 52 45 30 14 4 358 359 359 360 3 31 60 76 79 69 53 32 9 1 2 4 4 1 0 1 3 4 3 1 356 354
23 36 46 49 50 50 48 45 38 36 43 56 55 50 47 52 64 73 81 86 91 94 96 97 96 99 102 103 101 98 93 87 81 76 72 69 63 58 52 45 32 18 5 358 358 359 1 3 23 53 77 86 72 53 31 7 359 360 1 360 357 355 354 357 359 360 357 352 348